Weather History for Haleyville, AL

Change the Weather History Date:

Saturday, March 2, 2013

  Actual Average (KJFX) Record (KJFX)
Temperature  
Mean Temperature 31 °F -  
Max Temperature 34 °F 65 °F 80 °F (2012)
Min Temperature 28 °F 34 °F 14 °F (1980)
Degree Days  
Heating Degree Days 34    
Moisture  
Dew Point 25 °F    
Average Humidity 82    
Maximum Humidity 89    
Minimum Humidity 67    
Precipitation  
Precipitation 0.00 in - - ()
Sea Level Pressure  
Sea Level Pressure 30.15 in    
Wind  
Wind Speed 9 mph (NNW)    
Max Wind Speed 13 mph    
Max Gust Speed 17 mph    
Visibility 10 miles    
Events Snow    
Averages and records for this station are not official NWS values.
T = Trace of Precipitation, MM = Missing Value Source: NWS Daily Summary

Daily Weather History Graph

Daily Weather History Graph

Search for Another Location

Airport:

Trip Planner

Search our weather history database for the weather conditions in past years. The results will help you decide how hot, cold, wet, or windy it might be!

Date:

Astronomy

Mar. 02, 2013 Rise Set
Actual Time 6:17 AM CST 5:47 PM CST
Civil Twilight 5:52 AM CST 6:12 PM CST
Nautical Twilight 5:23 AM CST 6:41 PM CST
Astronomical Twilight 4:54 AM CST 7:11 PM CST
Moon 11:10 PM CST (3/2) 9:00 AM CST (3/2)
Length of Visible Light 12h 20m
Length of Day
11h 29m
Waning Gibbous, 74% of the Moon is Illuminated
Mar 2
Waning Gibbous
Mar 4
Last Quarter
Mar 11
New
Mar 19
First Quarter
Mar 27
Full

Hourly Weather History & Observations

Time (CST) Temp. Windchill Dew Point Humidity Pressure Visibility Wind Dir Wind Speed Gust Speed Precip Events Conditions
12:42 AM 30.2 °F 21.3 °F 26.6 °F 86% 30.09 in 10.0 mi NW 10.4 mph - 0.00 in   Overcast
12:56 AM 31.1 °F 24.5 °F 27.1 °F 85% 30.12 in 10.0 mi Variable 6.9 mph - 0.00 in   Overcast
1:56 AM 31.1 °F 24.5 °F 27.1 °F 85% 30.12 in 10.0 mi NW 6.9 mph - 0.00 in   Overcast
2:11 AM 30.2 °F 23.4 °F 26.6 °F 86% 30.08 in 10.0 mi NW 6.9 mph - 0.00 in   Overcast
3:56 AM 31.1 °F 24.5 °F 28.0 °F 88% 30.11 in 7.0 mi NW 6.9 mph - 0.00 in   Overcast
4:56 AM 31.1 °F 24.5 °F 28.0 °F 88% 30.11 in 10.0 mi NW 6.9 mph - 0.00 in   Overcast
5:56 AM 30.0 °F 23.2 °F 27.1 °F 89% 30.11 in 10.0 mi NNW 6.9 mph - 0.00 in   Mostly Cloudy
6:06 AM 30.2 °F 23.4 °F 26.6 °F 86% 30.08 in 10.0 mi NW 6.9 mph - N/A   Overcast
6:17 AM 30.2 °F 22.6 °F 26.6 °F 86% 30.08 in 10.0 mi NNW 8.1 mph - N/A   Overcast
6:56 AM 31.1 °F 23.7 °F 27.1 °F 85% 30.13 in 10.0 mi NW 8.1 mph - N/A   Overcast
7:22 AM 30.2 °F 21.3 °F 26.6 °F 86% 30.10 in 10.0 mi NNW 10.4 mph - N/A   Overcast
7:42 AM 30.2 °F 21.3 °F 26.6 °F 86% 30.10 in 10.0 mi NNW 10.4 mph - N/A   Overcast
7:56 AM 32.0 °F 23.0 °F 27.1 °F 82% 30.14 in 10.0 mi NW 11.5 mph - 0.00 in   Overcast
8:56 AM 31.1 °F 22.4 °F 26.1 °F 82% 30.16 in 10.0 mi NNW 10.4 mph - 0.00 in   Overcast
9:56 AM 31.1 °F 23.1 °F 24.1 °F 75% 30.17 in 10.0 mi NNW 9.2 mph - 0.00 in   Overcast
10:56 AM 32.0 °F 24.2 °F 23.0 °F 69% 30.17 in 10.0 mi NNW 9.2 mph - 0.00 in   Overcast
11:56 AM 34.0 °F 27.2 °F 24.1 °F 67% 30.17 in 10.0 mi NNW 8.1 mph - 0.00 in   Overcast
12:24 PM 32.0 °F 23.6 °F 24.8 °F 75% 30.13 in 7.0 mi NW 10.4 mph - 0.00 in Snow Light Snow
12:56 PM 32.0 °F 24.8 °F 25.2 °F 76% 30.15 in 5.0 mi NW 8.1 mph - 0.00 in Snow Light Snow
1:23 PM 32.0 °F 22.5 °F 24.8 °F 75% 30.11 in 8.0 mi NNW 12.7 mph - 0.00 in Snow Light Snow
1:56 PM 32.0 °F 22.5 °F 26.1 °F 79% 30.15 in 6.0 mi NW 12.7 mph 17.3 mph 0.00 in Snow Light Snow
2:56 PM 31.1 °F 22.4 °F 25.2 °F 79% 30.15 in 10.0 mi NW 10.4 mph - 0.00 in Snow Light Snow
3:56 PM 31.1 °F 21.4 °F 25.2 °F 79% 30.16 in 10.0 mi NW 12.7 mph - 0.00 in Snow Light Snow
4:56 PM 30.0 °F 21.7 °F 25.2 °F 82% 30.17 in 8.0 mi NNW 9.2 mph 17.3 mph 0.00 in Snow Light Snow
5:56 PM 30.0 °F 21.1 °F 25.2 °F 82% 30.19 in 10.0 mi North 10.4 mph - 0.00 in   Overcast
6:33 PM 30.2 °F 22.6 °F 24.8 °F 80% 30.16 in 10.0 mi NNW 8.1 mph - 0.00 in Snow Light Snow
6:56 PM 30.0 °F 21.7 °F 25.2 °F 82% 30.20 in 10.0 mi NNW 9.2 mph - 0.00 in Snow Light Snow
7:56 PM 29.1 °F 23.0 °F 25.2 °F 85% 30.20 in 10.0 mi NNW 5.8 mph - 0.00 in Snow Light Snow
8:26 PM 28.4 °F 19.7 °F 24.8 °F 86% 30.18 in 10.0 mi NW 9.2 mph - 0.00 in Snow Light Snow
8:56 PM 29.1 °F 23.0 °F 24.1 °F 81% 30.21 in 10.0 mi NNW 5.8 mph - 0.00 in Snow Light Snow
9:23 PM 28.4 °F 21.2 °F 24.8 °F 86% 30.18 in 10.0 mi NW 6.9 mph - 0.00 in   Overcast
9:56 PM 28.0 °F 20.8 °F 24.1 °F 85% 30.21 in 10.0 mi NW 6.9 mph - 0.00 in   Mostly Cloudy
10:56 PM 28.0 °F 19.3 °F 23.0 °F 81% 30.20 in 10.0 mi NNW 9.2 mph - N/A   Overcast
11:49 PM 28.4 °F 20.4 °F 21.2 °F 74% 30.17 in 10.0 mi NNW 8.1 mph - 0.00 in Snow Light Snow
11:56 PM 28.0 °F 20.8 °F 22.1 °F 78% 30.21 in 10.0 mi NNW 6.9 mph - 0.00 in   Overcast